{"data":{"norad_id":61861,"epoch":"2026-09-21T13:40:51.543264Z","epoch_age_seconds":96364,"freshness":"FRESH","line1":"1 61861U 24202S   26264.57004101 -.00000132  00000+0  47264-5 0  9994","line2":"2 61861  43.0038 211.8757 0000528 277.9943  82.0849 15.27574699105281","mean_motion":15.27574699,"eccentricity":5.28e-5,"inclination_deg":43.0038,"raan_deg":211.8757,"arg_perigee_deg":277.9943,"mean_anomaly_deg":82.0849,"bstar":4.7264e-6,"rev_number":10528,"period_min":94.267075838757,"perigee_km":482.70269772261,"apogee_km":483.42724065055,"semimajor_km":6861.2019691866,"source":"CELESTRAK","updated_at":"2026-09-22T09:00:49.442937Z"}}